Content
SEND FEEDBACK

Daily
Averages
Monthly
Summary
Canada

MONTREAL, QUEBEC


Home > North America > Canada > Quebec
Elevation: 118 feet     Latitude: 45 28N     Longitude: 073 45W

WEATHER
 
SELECT A DAY
Number of Records: 198,022;   Date Range: 1/1/95 - 7/20/14
 
SHARE

PRINT THIS DATA

[ ← Previous Day ]
WEATHER ALMANAC - JUNE 29, 2013
[ Next Day → ]
[ °C ]   °F
We're sorry. There is no daily almanac available for Montreal, Quebec on June 29, 2013.
WEATHER BY HOUR - JUNE 29, 2013
[ °C ]   °F
Local TimeTemperatureDewpointHumidityBarometerVisibilityWind DirectionWind SpeedGust SpeedPrecipitationEventsConditions
1:00 AM59.0 °F59.0 °F100 %29.51 in10.0 miWSW (250°)4.6 mphOvercast
1:38 AM59.0 °F59.0 °F100 %29.51 in7.0 miSW (230°)2.3 mphLight Drizzle
2:00 AM60.0 °F59.0 °F94 %29.51 in10.0 miSouth (190°)5.8 mphRainLight Drizzle
2:00 AM60.8 °F59.0 °F94 %29.51 in10.0 miSouth (190°)6.9 mphMostly Cloudy
2:40 AM60.8 °F59.0 °F94 %29.51 in6.0 miWest (280°)4.6 mphLight Drizzle
3:00 AM60.8 °F59.0 °F94 %29.51 in8.0 miWest (260°)4.6 mphLight Drizzle
4:00 AM60.8 °F59.0 °F94 %29.51 in10.0 miWSW (240°)4.6 mphMostly Cloudy
5:00 AM60.8 °F59.0 °F94 %29.52 in10.0 miSSW (200°)2.3 mphOvercast
6:00 AM60.8 °F59.0 °F94 %29.53 in12.0 miSSE (160°)5.8 mphOvercast
7:00 AM60.8 °F59.0 °F94 %29.55 in30.0 miSouth (170°)6.9 mphOvercast
8:00 AM63.0 °F60.0 °F86 %29.55 in15.0 miCalmPartly Cloudy
8:00 AM62.6 °F60.8 °F94 %29.55 in15.0 miSSW (210°)9.2 mphOvercast
9:00 AM62.6 °F60.8 °F94 %29.57 in30.0 miSSW (200°)5.8 mphOvercast
10:00 AM64.4 °F60.8 °F88 %29.55 in30.0 miSSW (210°)3.5 mphMostly Cloudy
11:00 AM66.2 °F60.8 °F83 %29.55 in30.0 miVariable2.3 mphMostly Cloudy
12:00 PM68.0 °F59.0 °F73 %29.55 in15.0 miSSE (160°)4.6 mphMostly Cloudy
1:00 PM68.0 °F60.8 °F78 %29.55 in15.0 miSouth (180°)3.5 mphRainLight Rain Showers
1:47 PM68.0 °F62.6 °F83 %29.55 in15.0 miSouth (170°)3.5 mphOvercast
2:00 PM68.0 °F61.0 °F72 %29.55 in15.0 miSE (130°)3.5 mphRainLight Rain Showers
2:00 PM68.0 °F60.8 °F78 %29.55 in15.0 miSE (130°)3.5 mphOvercast
3:00 PM69.8 °F62.6 °F78 %29.55 in15.0 miVariable2.3 mphMostly Cloudy
4:00 PM69.8 °F62.6 °F78 %29.55 in15.0 miSouth (190°)3.5 mphMostly Cloudy
5:00 PM69.8 °F62.6 °F78 %29.57 in15.0 miSW (220°)5.8 mphMostly Cloudy
6:00 PM71.6 °F60.8 °F69 %29.57 in15.0 miSouth (190°)4.6 mphMostly Cloudy
7:00 PM69.8 °F62.6 °F78 %29.58 in15.0 miSouth (190°)3.5 mphPartly Cloudy
8:00 PM69.0 °F62.0 °F71 %29.60 in15.0 miSSW (210°)5.8 mphScattered Clouds
8:00 PM69.8 °F60.8 °F73 %29.60 in15.0 miSSW (200°)5.8 mphPartly Cloudy
9:00 PM69.8 °F62.6 °F78 %29.62 in15.0 miSSW (200°)6.9 mphMostly Cloudy
10:00 PM68.0 °F62.6 °F83 %29.64 in15.0 miSouth (190°)6.9 mphMostly Cloudy
11:00 PM66.2 °F62.6 °F88 %29.65 in15.0 miWSW (250°)5.8 mphMostly Cloudy
Hourly data recorded from CYUL, located miles away from Montreal, Quebec







STORIES FROM OUR PARTNERS